LOT6669 EPWA-LICJ

Flight info

Callsign LOT6669
Flight time N/A
Altitude 36000
Route EVINA Z175 SKARY DCT XOMBA DCT KOPRY DCT VELUG/N0454F370 DCT AMANO/N0382F190 M742 ROSAS
Aircraft B38M/M-SADE2E3FGHIJ1RWYZ/LB1

Departure

Time 2026-05-07 10:48
Airport Warsaw Chopin Airport (EPWA)

Arrival

Time N/A
Airport Falcone–Borsellino Airport (LICJ)
Time Latitude Longitude Altitude Speed Heading
2026-05-07 10:18 52.17340 20.96544 336 ft 0 kts 207°
2026-05-07 10:39 52.17338 20.96542 314 ft 0 kts 207°
2026-05-07 10:40 52.17337 20.96542 310 ft 1 kts 207°
2026-05-07 10:41 52.17335 20.96539 337 ft 0 kts 210°
2026-05-07 10:41 52.17326 20.96529 339 ft 3 kts 222°
2026-05-07 10:41 52.17291 20.96500 341 ft 9 kts 179°
2026-05-07 10:41 52.17207 20.96557 336 ft 17 kts 149°
2026-05-07 10:42 52.17090 20.96662 338 ft 20 kts 151°
2026-05-07 10:42 52.16966 20.96772 340 ft 21 kts 151°
2026-05-07 10:42 52.16832 20.96884 341 ft 22 kts 153°
2026-05-07 10:42 52.16692 20.97007 338 ft 23 kts 146°
2026-05-07 10:43 52.16613 20.97235 338 ft 24 kts 114°
2026-05-07 10:43 52.16543 20.97487 337 ft 25 kts 114°
2026-05-07 10:43 52.16468 20.97750 340 ft 26 kts 115°
2026-05-07 10:43 52.16391 20.98025 343 ft 27 kts 115°
2026-05-07 10:44 52.16309 20.98311 349 ft 28 kts 115°
2026-05-07 10:44 52.16240 20.98459 341 ft 17 kts 167°
2026-05-07 10:44 52.16133 20.98398 337 ft 12 kts 218°
2026-05-07 10:44 52.16126 20.98311 340 ft 8 kts 292°
2026-05-07 10:45 52.16127 20.98308 340 ft 0 kts 293°
2026-05-07 10:47 52.16127 20.98307 340 ft 1 kts 293°
2026-05-07 10:47 52.16176 20.98129 338 ft 50 kts 294°
2026-05-07 10:47 52.16433 20.97217 337 ft 124 kts 294°
2026-05-07 10:47 52.16864 20.95670 533 ft 164 kts 295°
2026-05-07 10:48 52.17370 20.93956 1365 ft 169 kts 295°
2026-05-07 10:48 52.17846 20.92217 2277 ft 170 kts 294°
2026-05-07 10:48 52.18280 20.90313 2755 ft 189 kts 283°
2026-05-07 10:48 52.18383 20.88022 3066 ft 219 kts 260°
2026-05-07 10:49 52.17977 20.85502 3572 ft 240 kts 254°
2026-05-07 10:49 52.17530 20.82779 4215 ft 256 kts 255°
2026-05-07 10:49 52.17085 20.79984 5240 ft 255 kts 254°
2026-05-07 10:49 52.16644 20.77171 6175 ft 258 kts 254°
2026-05-07 10:50 52.16204 20.74326 7091 ft 260 kts 254°
2026-05-07 10:50 52.15578 20.71613 7954 ft 261 kts 235°
2026-05-07 10:50 52.14308 20.69513 8867 ft 263 kts 220°
2026-05-07 10:50 52.12880 20.67618 9722 ft 267 kts 220°
2026-05-07 10:51 52.11400 20.65682 10424 ft 276 kts 219°
2026-05-07 10:51 52.09841 20.63670 10754 ft 296 kts 219°
2026-05-07 10:51 52.08171 20.61536 11144 ft 313 kts 219°
2026-05-07 10:51 52.06447 20.59347 11664 ft 324 kts 218°
2026-05-07 10:52 52.04665 20.57094 12463 ft 326 kts 218°
2026-05-07 10:52 52.02863 20.54819 13213 ft 330 kts 218°
2026-05-07 10:52 52.01037 20.52520 13941 ft 334 kts 218°
2026-05-07 10:52 51.99194 20.50200 14645 ft 337 kts 218°
2026-05-07 10:53 51.97334 20.47861 15329 ft 340 kts 218°
2026-05-07 10:53 51.95396 20.45632 15997 ft 344 kts 207°
2026-05-07 10:53 51.93116 20.44458 16688 ft 349 kts 190°
2026-05-07 10:53 51.90688 20.43985 17313 ft 354 kts 188°
2026-05-07 10:54 51.88227 20.43546 17979 ft 357 kts 188°
2026-05-07 10:54 51.86550 20.43263 18384 ft 360 kts 188°